Location: Unnamed
(51.5169°N, 0.1311°W)
Time: 21:32:07
(UTC+01:00)

Tiros 1 - Pass Details

Date: 07 August 2024
Orbit: 623 x 655 km, 48.4° (Epoch: 16 September)

Event Time Altitude Azimuth Distance (km) Brightness Sun altitude
Rises 06:40:11 0° 195° (SSW) 2,967 10.3 8.7°
Reaches altitude 10° 06:43:32 10° 171° (S) 2,061 9.7 9.2°
Maximum altitude 06:45:59 14° 139° (SE) 1,802 9.9 9.6°
Drops below altitude 10° 06:48:27 10° 108° (ESE) 2,064 10.9 9.9°
Sets 06:51:48 0° 84° (E) 2,976 12.7 10.5°
